This is the latest recevied weather packets stored in our database for station/object KF7ROW. If no packets are shown the sender has not sent any weather packets the latest 10 day(s).
| Time | Temp. | Humidity | Pressure | Rain* | Wind** | Luminosity | Snow |
|---|---|---|---|---|---|---|---|
| 1777652300 | 12.22° C | 87% | 1022.5 hPa | 0 mm | - | 159 W/m² | - |
| 1777651997 | 12.22° C | 88% | 1022.7 hPa | 0 mm | - | 112 W/m² | - |
| 1777651694 | 12.22° C | 87% | 1022.7 hPa | 0 mm | - | 111 W/m² | - |
| 1777651390 | 12.22° C | 88% | 1022.7 hPa | 0 mm | - | 128 W/m² | - |
| 1777651088 | 12.22° C | 88% | 1022.8 hPa | 0 mm | - | 102 W/m² | - |
| 1777650785 | 12.22° C | 89% | 1022.6 hPa | 0 mm | - | 116 W/m² | - |
| 1777650481 | 12.22° C | 88% | 1022.7 hPa | 0 mm | - | 108 W/m² | - |
| 1777650178 | 12.22° C | 89% | 1022.4 hPa | 0 mm | - | 102 W/m² | - |
| 1777649876 | 12.22° C | 88% | 1022.6 hPa | 0 mm | - | 93 W/m² | - |
| 1777649573 | 12.22° C | 89% | 1022.5 hPa | 0 mm | - | 64 W/m² | - |
| 1777649269 | 12.22° C | 88% | 1022.4 hPa | 0 mm | - | 113 W/m² | - |
| 1777648966 | 12.22° C | 88% | 1022.3 hPa | 0 mm | - | 117 W/m² | - |
| 1777648664 | 11.67° C | 88% | 1022.4 hPa | 0 mm | - | 94 W/m² | - |
| 1777648359 | 11.67° C | 88% | 1022.4 hPa | 0 mm | - | 118 W/m² | - |
| 1777648056 | 11.67° C | 88% | 1022.3 hPa | 0 mm | - | 101 W/m² | - |
| 1777647752 | 11.67° C | 89% | 1022.3 hPa | 0 mm | - | 82 W/m² | - |
| 1777647449 | 11.67° C | 88% | 1022.1 hPa | 0 mm | - | 82 W/m² | - |
| 1777647147 | 11.67° C | 88% | 1021.9 hPa | 0 mm | - | 79 W/m² | - |
| 1777646842 | 11.67° C | 89% | 1021.9 hPa | 0 mm | - | 62 W/m² | - |
| 1777646538 | 11.67° C | 89% | 1022 hPa | 0 mm | - | 57 W/m² | - |
| 1777646235 | 11.67° C | 89% | 1021.9 hPa | 0 mm | - | 47 W/m² | - |
| 1777645933 | 11.67° C | 89% | 1022.1 hPa | 0 mm | - | 35 W/m² | - |
| 1777645629 | 11.67° C | 89% | 1022 hPa | 0 mm | - | 25 W/m² | - |
| 1777645325 | 11.67° C | 90% | 1022.3 hPa | 0 mm | - | 20 W/m² | - |
| 1777645020 | 11.67° C | 90% | 1022.2 hPa | 0 mm | - | 20 W/m² | - |
* Rain latest hour (hover to see other rain measurements)
** Current wind speed in m/s (hover to see current wind gust speed)